Regional Weather Roundup
Issued by NWS

Home | Current Version | Previous Version | Graphics & Text | Print | Product List | Glossary On
Versions: 1 2 3 4 5 6 7 8 9 10 11 12 13 14 15 16 17 18 19 20 21 22 23 24 25 26 27 28 29 30 31 32 33 34 35 36 37 38 39 40 41 42 43 44 45 46 47 48 49 50
000
ASUS45 KBOU 201107
RWRCO

WEATHER ROUNDUP FOR COLORADO
NATIONAL WEATHER SERVICE DENVER/BOULDER CO
500 AM MDT FRI OCT 20 2017

NOTE: "FAIR" INDICATES FEW OR NO CLOUDS BELOW 12000 FEET WITH NO
SIGNIFICANT WEATHER AND/OR OBSTRUCTIONS TO VISIBILITY.

COZ001>005-013-030-031-201200-
...NORTHWEST COLORADO...

CITY           SKY/WX    TMP DP  RH WIND       PRES   REMARKS
CRAIG          MOCLDY    33  29  85 SW3       29.87F
HAYDEN         FAIR      46  29  51 S3        29.90F
MEEKER         FAIR      41  31  67 CALM      29.88F
RABBIT EARS PA FAIR      37  28  70 S7G18     30.07F
STEAMBOAT SPGS FAIR      40  29  66 CALM      29.90F
WALDEN         NOT AVBL
$$

COZ006>008-011-201200-
...WEST CENTRAL VALLEYS...

CITY           SKY/WX    TMP DP  RH WIND       PRES   REMARKS
GRAND JUNCTION FAIR      59  34  39 SE13      29.81F
MONTROSE       FAIR      54  32  43 E6        29.92F
EAGLE          FAIR      36  27  69 CALM      29.98F
RIFLE          CLOUDY    49  33  54 CALM      29.88F
DELTA          FAIR      52  31  44 NE7       29.89F
NUCLA          NOT AVBL
$$

COZ017>023-064>068-201200-
...SOUTHWEST COLORADO...

CITY           SKY/WX    TMP DP  RH WIND       PRES   REMARKS
DURANGO        CLOUDY    44  34  67 CALM      30.03F
CORTEZ         FAIR      41  33  73 E3        29.96F
PAGOSA SPRINGS MOCLDY    44  37  74 CALM      30.09S
TELLURIDE      FAIR      47  33  58 E6        30.10F
WOLF CREEK PAS FOG       30  30 100 S10       30.27F VSB 1/2 WCI  21
$$

COZ009-010-012-014-032>034-037-058>063-201200-
...CENTRAL COLORADO...

CITY           SKY/WX    TMP DP  RH WIND       PRES   REMARKS
ASPEN          FAIR      37  28  70 SW8       29.98F
BUENA VISTA    FAIR      31  23  71 CALM      30.02S
COPPER MTN     FAIR      37  27  65 SW7G17    30.18F
BERTHOUD PASS  FAIR      32  21  64 W24G31    30.17F WCI  19
COTTONWOOD PAS FAIR      50  30  46 W9        30.08F
GUNNISON       FAIR      29  22  75 CALM      30.06S
KREMMLING      FAIR      30  27  86 SE3       30.00F
LEADVILLE      FAIR      28  21  75 E7        30.08F WCI  21
MONARCH PASS   FAIR      32  25  74 W22       30.28F WCI  19
SALIDA         FAIR      45  24  42 NW5       30.07S
SUNLIGHT       CLOUDY    36  28  75 SW13G20   30.14F
WILKERSON PASS FAIR      36  19  51 SW10G20   30.15S
$$

COZ069>075-201200-
...SAN LUIS VALLEY/SANGRE DE CRISTO MOUNTAINS...

CITY           SKY/WX    TMP DP  RH WIND       PRES   REMARKS
ALAMOSA        FAIR      30  26  85 CALM      30.03S
DEL NORTE      FAIR      45  30  55 SW12      30.05S
LA VETA PASS   FAIR      39  32  75 S22G37    30.20F
SAGUACHE       FAIR      32  19  59 CALM      30.05S
$$

COZ035-036-038>040-201200-
...NORTHERN COLORADO FRONT RANGE...

CITY           SKY/WX    TMP DP  RH WIND       PRES   REMARKS
DENVER INTL AP FAIR      48  29  47 SW10      29.79F
DMNS CITY PARK   N/A     50  27  42 SE8       29.79S
AURORA         PTCLDY    49  29  46 S9        29.81F
FRONT RANGE AP FAIR      50  32  50 SW8       29.80F
ERIE MUNI ARPT FAIR      41  33  72 S6        29.83F
BOULDER MUN AP FAIR      46  34  61 CALM      29.77F
CENTENNIAL     FAIR      47  28  47 S3        29.82F
BROOMFIELD     FAIR      55  28  35 W5        29.81S
FORT COLLINS   FAIR      43  32  65 SE3       29.77F
LONGMONT       FAIR      40  32  73 CALM      29.79F
$$

COZ041-046-047-076>085-087-088-201200-
...PIKES PEAK/PALMER DIVIDE AND SOUTHERN FOOTHILLS...

CITY           SKY/WX    TMP DP  RH WIND       PRES   REMARKS
COLO. SPRINGS  FAIR      47  30  51 NE6       29.86F
A. F. ACADEMY  FAIR      55  21  27 N5        29.85F
SCHRIEVER AFB  FAIR      45  31  58 CALM      29.85F
CHEYENNE MTN   FAIR      58  25  27 NW6       29.83S
ELLICOTT       FAIR     N/A N/A N/A NW6       29.83F
FALCON         FAIR      51  24  34 W10       29.89S
FORT CARSON    FAIR      43  30  61 CALM      29.82F
LIMON          CLOUDY    31  31 100 N5        29.81F FOG     WCI  26
MONUMENT HILL  FAIR      43  23  45 W9        29.90S
CANON CITY     FAIR      55  28  35 W12       29.83S
WALSENBURG     FAIR      59  37  44 W15       29.89R
TRINIDAD       FAIR      49  36  61 W9        29.88R
$$

COZ042>045-048>051-090-091-201200-
...NORTHEAST COLORADO...

CITY           SKY/WX    TMP DP  RH WIND       PRES   REMARKS
GREELEY ARPT   FAIR      35  31  85 CALM      29.77F
AKRON          FAIR      49  39  68 S10       29.76F
BURLINGTON     FAIR      50  48  93 S13       29.79F
WRAY           NOT AVBL
YUMA           FAIR      41  37  87 SW6       29.76F
STERLING       FAIR      41  37  87 SW3       29.74F
HOLYOKE        FAIR      41  37  87 CALM      29.77S
FORT MORGAN    FAIR      38  32  79 W9        29.76F
$$

COZ086-089-092>099-201200-
...SOUTHEAST COLORADO...

CITY           SKY/WX    TMP DP  RH WIND       PRES   REMARKS
PUEBLO         FAIR      38  32  79 SW5       29.80F
LA JUNTA       FAIR      49  38  65 W9        29.78S
LAMAR          FAIR      56  48  74 S15       29.75F
SPRINGFIELD    NOT AVBL
$$



USA.gov is the U.S. government's official web portal to all federal, state and local government web resources and services.